Houston, TX

10:54 AM CDT on May 23, 2017 (GMT -0500)
Houston

Weather History for KTME - September, 2013

Change the Weather History Date:

Tuesday, September 24, 2013

  Actual Average (KSGR) Record (KSGR)
Temperature  
Mean Temperature 83 °F -  
Max Temperature 95 °F 86 °F 96 °F (1980)
Min Temperature 71 °F 66 °F 52 °F (1947)
Cooling Degree Days 18    
Growing Degree Days 33 (Base 50)    
Moisture  
Dew Point 68 °F    
Average Humidity 70    
Maximum Humidity 100    
Minimum Humidity 30    
Precipitation  
Precipitation 0.02 in - - ()
Sea Level Pressure  
Sea Level Pressure 29.84 in    
Wind  
Wind Speed 6 mph (NNW)    
Max Wind Speed 13 mph    
Max Gust Speed 17 mph    
Visibility 10 miles    
Events      
Averages and records for this station are not official NWS values.
T = Trace of Precipitation, MM = Missing Value Source: NWS Daily Summary

Daily Weather History Graph

Daily Weather History Graph

Search for Another Location

Airport or City:

Trip Planner

Search our weather history database for the weather conditions in past years. The results will help you decide how hot, cold, wet, or windy it might be!

Date:

Astronomy

Sep. 24, 2013 Rise Set
Actual Time 7:13 AM CDT 7:17 PM CDT
Civil Twilight 6:49 AM CDT 7:41 PM CDT
Nautical Twilight 6:21 AM CDT 8:08 PM CDT
Astronomical Twilight 5:53 AM CDT 8:36 PM CDT
Moon 10:58 PM CDT (9/24) 12:06 PM CDT (9/24)
Length of Visible Light 12h 51m
Length of Day
12h 04m
Waning Gibbous, 73% of the Moon is Illuminated
Sep 24
Waning Gibbous
Sep 26
Last Quarter
Oct 4
New
Oct 11
First Quarter
Oct 18
Full

Hourly Weather History & Observations

Time (CDT) Temp. Heat Index Dew Point Humidity Pressure Visibility Wind Dir Wind Speed Gust Speed Precip Events Conditions
12:15 AM 73.4 °F - 71.6 °F 94% 29.82 in 10.0 mi North 3.5 mph - N/A   Partly Cloudy
12:35 AM 73.4 °F - 71.6 °F 94% 29.82 in 10.0 mi North 4.6 mph - N/A   Partly Cloudy
12:55 AM 73.4 °F - 73.4 °F 100% 29.82 in 10.0 mi North 4.6 mph - N/A   Clear
1:15 AM 73.4 °F - 71.6 °F 94% 29.82 in 10.0 mi North 4.6 mph - N/A   Clear
1:35 AM 73.4 °F - 73.4 °F 100% 29.82 in 10.0 mi North 5.8 mph - N/A   Clear
1:55 AM 73.4 °F - 73.4 °F 100% 29.82 in 10.0 mi North 4.6 mph - N/A   Mostly Cloudy
2:35 AM 73.4 °F - 73.4 °F 100% 29.82 in 10.0 mi NNW 3.5 mph - N/A   Mostly Cloudy
2:55 AM 71.6 °F - 71.6 °F 100% 29.82 in 10.0 mi NNW 5.8 mph - N/A   Overcast
3:15 AM 73.4 °F - 73.4 °F 100% 29.82 in 10.0 mi NNW 5.8 mph - N/A   Mostly Cloudy
3:35 AM 71.6 °F - 71.6 °F 100% 29.82 in 10.0 mi NNW 5.8 mph - N/A   Mostly Cloudy
3:55 AM 71.6 °F - 71.6 °F 100% 29.82 in 10.0 mi North 4.6 mph - N/A   Mostly Cloudy
4:35 AM 71.6 °F - 71.6 °F 100% 29.81 in 10.0 mi North 4.6 mph - N/A   Mostly Cloudy
4:55 AM 71.6 °F - 71.6 °F 100% 29.82 in 10.0 mi North 4.6 mph - N/A   Mostly Cloudy
5:15 AM 71.6 °F - 71.6 °F 100% 29.82 in 10.0 mi NW 4.6 mph - N/A   Overcast
5:35 AM 71.6 °F - 71.6 °F 100% 29.83 in 10.0 mi NNW 4.6 mph - N/A   Overcast
5:55 AM 71.6 °F - 71.6 °F 100% 29.83 in 10.0 mi NW 4.6 mph - N/A   Mostly Cloudy
6:15 AM 71.6 °F - 71.6 °F 100% 29.83 in 9.0 mi NNW 4.6 mph - N/A   Mostly Cloudy
6:35 AM 71.6 °F - 71.6 °F 100% 29.83 in 10.0 mi NNW 3.5 mph - N/A   Partly Cloudy
6:55 AM 71.6 °F - 71.6 °F 100% 29.83 in 10.0 mi North 3.5 mph - N/A   Clear
7:15 AM 71.6 °F - 71.6 °F 100% 29.84 in 9.0 mi NNE 4.6 mph - N/A   Clear
7:35 AM 71.6 °F - 71.6 °F 100% 29.85 in 8.0 mi NW 4.6 mph - N/A   Clear
7:55 AM 71.6 °F - 71.6 °F 100% 29.86 in 9.0 mi NNW 5.8 mph - N/A   Clear
8:15 AM 73.4 °F - 73.4 °F 100% 29.86 in 10.0 mi NW 8.1 mph - N/A   Clear
8:35 AM 75.2 °F - 73.4 °F 94% 29.87 in 10.0 mi NNW 6.9 mph - N/A   Clear
8:55 AM 77.0 °F - 73.4 °F 89% 29.87 in 10.0 mi NNW 6.9 mph - N/A   Clear
9:15 AM 80.6 °F 84.6 °F 71.6 °F 74% 29.87 in 10.0 mi NNW 9.2 mph - N/A   Clear
9:35 AM 82.4 °F 87.2 °F 71.6 °F 70% 29.88 in 10.0 mi North 9.2 mph - N/A   Clear
9:55 AM 84.2 °F 89.6 °F 71.6 °F 66% 29.88 in 10.0 mi North 8.1 mph - N/A   Scattered Clouds
10:15 AM 84.2 °F 89.6 °F 71.6 °F 66% 29.89 in 10.0 mi NNW 8.1 mph - N/A   Mostly Cloudy
10:35 AM 86.0 °F 91.8 °F 71.6 °F 62% 29.89 in 10.0 mi NNW 12.7 mph - N/A   Partly Cloudy
10:55 AM 86.0 °F 91.8 °F 71.6 °F 62% 29.89 in 10.0 mi North 10.4 mph 17.3 mph N/A   Clear
11:15 AM 87.8 °F 93.8 °F 71.6 °F 58% 29.88 in 10.0 mi North 9.2 mph 17.3 mph N/A   Partly Cloudy
11:35 AM 86.0 °F 90.4 °F 69.8 °F 58% 29.88 in 10.0 mi NNW 10.4 mph - N/A   Scattered Clouds
11:55 AM 86.0 °F 90.4 °F 69.8 °F 58% 29.88 in 10.0 mi North 9.2 mph - N/A   Scattered Clouds
12:15 PM 89.6 °F 94.7 °F 69.8 °F 52% 29.87 in 10.0 mi North 12.7 mph 16.1 mph N/A   Partly Cloudy
12:55 PM 91.4 °F 95.4 °F 68.0 °F 46% 29.86 in 10.0 mi North 12.7 mph - N/A   Partly Cloudy
1:15 PM 91.4 °F 95.4 °F 68.0 °F 46% 29.86 in 10.0 mi NNW 8.1 mph - N/A   Partly Cloudy
1:35 PM 91.4 °F 95.4 °F 68.0 °F 46% 29.85 in 10.0 mi North 11.5 mph - N/A   Partly Cloudy
1:55 PM 93.2 °F 96.2 °F 66.2 °F 41% 29.84 in 10.0 mi North 10.4 mph - N/A   Partly Cloudy
2:15 PM 93.2 °F 96.2 °F 66.2 °F 41% 29.83 in 10.0 mi NW 9.2 mph 17.3 mph N/A   Clear
2:35 PM 93.2 °F 94.9 °F 64.4 °F 38% 29.82 in 10.0 mi NW 11.5 mph 16.1 mph N/A   Clear
2:55 PM 95.0 °F 96.0 °F 62.6 °F 34% 29.82 in 10.0 mi NNW 10.4 mph 17.3 mph N/A   Clear
3:15 PM 93.2 °F 93.3 °F 60.8 °F 34% 29.82 in 10.0 mi NNW 10.4 mph 17.3 mph N/A   Clear
3:35 PM 95.0 °F 94.4 °F 59.0 °F 30% 29.82 in 10.0 mi North - - N/A   Clear
3:55 PM 95.0 °F 95.2 °F 60.8 °F 32% 29.81 in 10.0 mi North - - N/A   Clear
4:15 PM 95.0 °F 94.4 °F 59.0 °F 30% 29.80 in 10.0 mi North - - N/A   Clear
4:35 PM - - - N/A% 29.80 in 10.0 mi North - - N/A   Clear
4:55 PM 95.0 °F 94.4 °F 59.0 °F 30% 29.80 in 10.0 mi North 9.2 mph - 0.02 in   Clear
5:15 PM 93.2 °F 92.6 °F 59.0 °F 32% 29.80 in - NNW 11.5 mph - N/A   Clear
5:35 PM 93.2 °F 92.6 °F 59.0 °F 32% 29.80 in - North 12.7 mph - N/A   Clear
5:55 PM 93.2 °F 92.6 °F 59.0 °F 32% 29.80 in 10.0 mi NNW 10.4 mph - N/A   Clear
6:15 PM 91.4 °F 90.7 °F 59.0 °F 34% 29.80 in 10.0 mi North 8.1 mph - N/A   Clear
6:35 PM - - - N/A% 29.80 in - North 8.1 mph - N/A   Unknown
6:55 PM 87.8 °F 88.5 °F 62.6 °F 43% 29.81 in 10.0 mi NNW 6.9 mph - N/A   Clear
7:15 PM 82.4 °F 83.9 °F 64.4 °F 54% 29.81 in 10.0 mi NNW 5.8 mph - N/A   Clear
7:35 PM 80.6 °F 82.3 °F 64.4 °F 58% 29.82 in 10.0 mi NNW 5.8 mph - N/A   Clear
7:55 PM 78.8 °F - 66.2 °F 65% 29.82 in 10.0 mi North - - N/A   Clear
8:15 PM 77.0 °F - 66.2 °F 69% 29.83 in 10.0 mi North 4.6 mph - N/A   Clear
8:35 PM 78.8 °F - 64.4 °F 61% 29.83 in 10.0 mi North 5.8 mph - N/A   Clear
8:55 PM 77.0 °F - 64.4 °F 65% 29.84 in 10.0 mi North 5.8 mph - N/A   Clear
9:15 PM 77.0 °F - 64.4 °F 65% 29.84 in 10.0 mi NNW 5.8 mph - N/A   Clear
9:35 PM 73.4 °F - 64.4 °F 73% 29.85 in 10.0 mi North 4.6 mph - N/A   Clear
9:55 PM 75.2 °F - 64.4 °F 69% 29.86 in 10.0 mi Calm Calm - N/A   Clear
10:15 PM 73.4 °F - 64.4 °F 73% 29.86 in 10.0 mi North 5.8 mph - N/A   Clear
10:35 PM 75.2 °F - 64.4 °F 69% 29.86 in 10.0 mi NNE 3.5 mph - N/A   Clear
10:55 PM 75.2 °F - 62.6 °F 65% 29.86 in 10.0 mi Calm Calm - N/A   Clear
11:15 PM 75.2 °F - 64.4 °F 69% 29.86 in 10.0 mi Calm Calm - N/A   Clear
11:35 PM 75.2 °F - 64.4 °F 69% 29.86 in 10.0 mi NNW 3.5 mph - N/A   Clear
11:55 PM 73.4 °F - 64.4 °F 73% 29.86 in 10.0 mi Calm Calm - N/A   Clear